Location: ?????????
(38.4921°N, 22.9787°E)
Time: 02:27:27
(UTC+00:00)

BREEZE-M DEB (TANK) - Pass Details

Date: 08 December 2025
Orbit: 331 x 14637 km, 49.5° (Epoch: 14 January)

Event Time Altitude Azimuth Distance (km) Brightness Sun altitude
Rises 04:24:57 0° 227° (SW) 2,961 6.8 -13.0°
Reaches altitude 10° 04:27:42 10° 223° (SW) 1,543 5.4 -12.5°
Maximum altitude 04:30:26 56° 143° (SE) 406 3.0 -12.0°
Drops below altitude 10° 04:32:44 10° 62° (ENE) 1,301 5.9 -11.6°
Sets 04:34:49 0° 58° (ENE) 2,390 7.2 -11.2°
